This is the latest recevied weather packets stored in our database for station/object N5TDX. If no packets are shown the sender has not sent any weather packets the latest 10 day(s).
| Time | Temp. | Humidity | Pressure | Rain* | Wind** | Luminosity | Snow |
|---|---|---|---|---|---|---|---|
| 1787942937 | 39.44° C | 30% | 1014.4 hPa | 0 mm | - | - | - |
| 1787942634 | 39.44° C | 30% | 1014.5 hPa | 0 mm | - | - | - |
| 1787942332 | 39.44° C | 29% | 1014.6 hPa | 0 mm | - | - | - |
| 1787942028 | 38.33° C | 33% | 1014.8 hPa | 0 mm | - | - | - |
| 1787941723 | 38.33° C | 32% | 1014.5 hPa | 0 mm | - | - | - |
| 1787941422 | 38.89° C | 31% | 1014.8 hPa | 0 mm | - | - | - |
| 1787941121 | 37.78° C | 32% | 1014.9 hPa | 0 mm | - | - | - |
| 1787940816 | 38.33° C | 34% | 1015 hPa | 0 mm | - | - | - |
| 1787940514 | 37.78° C | 32% | 1015.2 hPa | 0 mm | - | - | - |
| 1787940213 | 38.33° C | 32% | 1015 hPa | 0 mm | - | - | - |
| 1787939911 | 37.78° C | 33% | 1015.3 hPa | 0 mm | - | - | - |
| 1787939607 | 37.78° C | 35% | 1015.1 hPa | 0 mm | - | - | - |
| 1787939302 | 37.78° C | 36% | 1015.2 hPa | 0 mm | - | - | - |
| 1787938997 | 38.33° C | 34% | 1015.3 hPa | 0 mm | - | - | - |
| 1787938696 | 37.22° C | 36% | 1015.1 hPa | 0 mm | - | - | - |
| 1787938393 | 37.78° C | 36% | 1015.3 hPa | 0 mm | - | - | - |
| 1787938088 | 37.22° C | 35% | 1015.3 hPa | 0 mm | - | - | - |
| 1787937783 | 37.22° C | 37% | 1015.3 hPa | 0 mm | - | - | - |
| 1787937478 | 37.22° C | 36% | 1015.4 hPa | 0 mm | - | - | - |
| 1787937175 | 37.22° C | 36% | 1015.7 hPa | 0 mm | - | - | - |
| 1787936875 | 36.67° C | 37% | 1015.8 hPa | 0 mm | - | - | - |
| 1787936574 | 37.22° C | 39% | 1015.6 hPa | 0 mm | - | - | - |
| 1787936273 | 36.67° C | 39% | 1015.8 hPa | 0 mm | - | - | - |
| 1787935969 | 36.67° C | 39% | 1015.3 hPa | 0 mm | - | - | - |
| 1787935664 | 36.11° C | 40% | 1015.8 hPa | 0 mm | - | - | - |
* Rain latest hour (hover to see other rain measurements)
** Current wind speed in m/s (hover to see current wind gust speed)